Peotone Weather
Station Historical Data
 
Daily Summary for November 22, 2017 Units:  English    Metric   Both
« Previous Day
Next Day »
Daily Weekly Monthly Yearly Custom
  Current: High: Low: Average:
Temperature: 29.7 °F 29.8 °F 20.6 °F 23.5 °F
Dew Point: 20.5 °F 21.1 °F 16.8 °F 18.5 °F
Humidity: 68% 87% 68% 81%
Wind Speed: 2.3mph 9.2mph 1.1mph 4.3mph
Wind Gust: 5.8mph 10.3mph - -
WindWest - - WNW
Pressure: 30.40 in 30.41 in 30.24 in -
Precipitation: 0.00 in      
Historical Graphs
 
 
Tabular Data for November 22, 2017
Time Temperature Dew Point Pressure Wind Wind Speed Wind Gust Humidity Rainfall Rate (Hourly) solar Conditions
00:00 26.1 °F 19.9 °F 30.24 in NNW 5.8 mph 6.9 mph 77% 0.00 in 0.00 W/m2
00:03 26.0 °F 19.8 °F 30.25 in NW 2.3 mph 6.9 mph 77% 0.00 in 0.00 W/m2
00:05 26.0 °F 19.8 °F 30.25 in WNW 3.5 mph 6.9 mph 77% 0.00 in 0.00 W/m2
00:10 25.9 °F 19.7 °F 30.25 in NW 2.3 mph 5.8 mph 77% 0.00 in 0.00 W/m2
00:13 25.8 °F 19.6 °F 30.25 in NW 2.3 mph 4.6 mph 77% 0.00 in 0.00 W/m2
00:15 25.8 °F 19.6 °F 30.25 in WNW 4.6 mph 5.8 mph 77% 0.00 in 0.00 W/m2
00:20 25.7 °F 19.5 °F 30.25 in WNW 3.5 mph 5.8 mph 77% 0.00 in 0.00 W/m2
00:23 25.6 °F 19.4 °F 30.25 in NW 4.6 mph 4.6 mph 77% 0.00 in 0.00 W/m2
00:25 25.6 °F 19.4 °F 30.25 in WNW 3.5 mph 4.6 mph 77% 0.00 in 0.00 W/m2
00:28 25.6 °F 19.4 °F 30.25 in NW 5.8 mph 6.9 mph 77% 0.00 in 0.00 W/m2
00:30 25.5 °F 19.3 °F 30.25 in NW 2.3 mph 6.9 mph 77% 0.00 in 0.00 W/m2
00:33 25.4 °F 19.5 °F 30.25 in WNW 3.4 mph 5.8 mph 78% 0.00 in 0.00 W/m2
00:43 25.1 °F 19.2 °F 30.25 in WNW 4.6 mph 5.8 mph 78% 0.00 in 0.00 W/m2
00:45 25.1 °F 19.2 °F 30.25 in NW 5.8 mph 6.9 mph 78% 0.00 in 0.00 W/m2
00:48 25.0 °F 19.1 °F 30.25 in WNW 3.4 mph 5.8 mph 78% 0.00 in 0.00 W/m2
00:53 24.9 °F 19.0 °F 30.25 in WNW 4.6 mph 5.8 mph 78% 0.00 in 0.00 W/m2
00:55 24.8 °F 19.2 °F 30.25 in NW 6.9 mph 8.1 mph 79% 0.00 in 0.00 W/m2
00:58 24.7 °F 19.1 °F 30.25 in NW 5.8 mph 6.9 mph 79% 0.00 in 0.00 W/m2
01:00 24.6 °F 19.0 °F 30.25 in West 4.6 mph 6.9 mph 79% 0.00 in 0.00 W/m2
01:03 24.5 °F 18.9 °F 30.25 in WNW 5.8 mph 8.1 mph 79% 0.00 in 0.00 W/m2
01:05 24.5 °F 18.9 °F 30.25 in WNW 4.6 mph 8.1 mph 79% 0.00 in 0.00 W/m2
01:08 24.4 °F 18.8 °F 30.25 in WNW 4.6 mph 5.8 mph 79% 0.00 in 0.00 W/m2
01:18 24.2 °F 18.9 °F 30.26 in NW 4.6 mph 6.9 mph 80% 0.00 in 0.00 W/m2
01:20 24.2 °F 18.9 °F 30.26 in NW 4.6 mph 6.9 mph 80% 0.00 in 0.00 W/m2
01:23 24.1 °F 18.8 °F 30.26 in WNW 3.4 mph 5.8 mph 80% 0.00 in 0.00 W/m2
01:29 24.0 °F 18.7 °F 30.26 in NW 3.4 mph 5.8 mph 80% 0.00 in 0.00 W/m2
01:30 23.9 °F 18.6 °F 30.26 in WNW 4.6 mph 8.1 mph 80% 0.00 in 0.00 W/m2
01:34 23.9 °F 18.6 °F 30.27 in WNW 3.4 mph 6.9 mph 80% 0.00 in 0.00 W/m2
01:35 23.9 °F 18.6 °F 30.27 in WNW 5.8 mph 8.1 mph 80% 0.00 in 0.00 W/m2
01:39 23.8 °F 18.5 °F 30.27 in NW 4.6 mph 8.1 mph 80% 0.00 in 0.00 W/m2
01:40 23.8 °F 18.5 °F 30.27 in NW 4.6 mph 8.1 mph 80% 0.00 in 0.00 W/m2
01:44 23.8 °F 18.5 °F 30.27 in WNW 4.6 mph 8.1 mph 80% 0.00 in 0.00 W/m2
01:49 23.8 °F 18.5 °F 30.27 in WNW 4.6 mph 6.9 mph 80% 0.00 in 0.00 W/m2
01:50 23.8 °F 18.5 °F 30.27 in WNW 2.3 mph 9.2 mph 80% 0.00 in 0.00 W/m2
01:54 23.7 °F 18.5 °F 30.27 in NW 3.4 mph 6.9 mph 80% 0.00 in 0.00 W/m2
01:55 23.7 °F 18.4 °F 30.27 in WNW 2.3 mph 6.9 mph 80% 0.00 in 0.00 W/m2
01:59 23.7 °F 18.5 °F 30.27 in WNW 3.4 mph 4.6 mph 80% 0.00 in 0.00 W/m2
02:04 23.6 °F 18.4 °F 30.27 in NNW 3.4 mph 5.8 mph 80% 0.00 in 0.00 W/m2
02:09 23.5 °F 18.2 °F 30.28 in NW 5.8 mph 8.1 mph 80% 0.00 in 0.00 W/m2
02:10 23.4 °F 18.1 °F 30.28 in NNW 6.9 mph 8.1 mph 80% 0.00 in 0.00 W/m2
02:14 23.4 °F 18.1 °F 30.28 in NW 4.6 mph 9.2 mph 80% 0.00 in 0.00 W/m2
02:15 23.3 °F 18.3 °F 30.28 in WNW 6.9 mph 9.2 mph 81% 0.00 in 0.00 W/m2
02:19 23.3 °F 18.1 °F 30.29 in NNW 6.9 mph 8.1 mph 80% 0.00 in 0.00 W/m2
02:20 23.3 °F 18.3 °F 30.28 in NW 3.5 mph 8.1 mph 81% 0.00 in 0.00 W/m2
02:24 23.2 °F 18.2 °F 30.29 in NW 8.1 mph 8.1 mph 81% 0.00 in 0.00 W/m2
02:25 23.2 °F 18.2 °F 30.29 in NW 6.9 mph 8.1 mph 81% 0.00 in 0.00 W/m2
02:29 23.1 °F 18.1 °F 30.29 in WNW 3.4 mph 6.9 mph 81% 0.00 in 0.00 W/m2
02:30 23.1 °F 18.1 °F 30.29 in WNW 5.8 mph 6.9 mph 81% 0.00 in 0.00 W/m2
02:34 23.0 °F 18.0 °F 30.29 in WNW 4.6 mph 5.8 mph 81% 0.00 in 0.00 W/m2
02:35 23.0 °F 18.0 °F 30.29 in NW 4.6 mph 5.8 mph 81% 0.00 in 0.00 W/m2
02:44 23.0 °F 18.0 °F 30.29 in NW 4.6 mph 6.9 mph 81% 0.00 in 0.00 W/m2
02:45 23.0 °F 18.0 °F 30.29 in NW 4.6 mph 9.2 mph 81% 0.00 in 0.00 W/m2
02:49 23.0 °F 18.3 °F 30.29 in NW 5.8 mph 6.9 mph 82% 0.00 in 0.00 W/m2
02:50 23.0 °F 18.3 °F 30.29 in NNW 4.6 mph 9.2 mph 82% 0.00 in 0.00 W/m2
02:55 22.9 °F 18.0 °F 30.29 in NNW 8.1 mph 8.1 mph 81% 0.00 in 0.00 W/m2
02:59 22.9 °F 18.0 °F 30.30 in WNW 3.4 mph 8.1 mph 81% 0.00 in 0.00 W/m2
03:12 22.8 °F 18.1 °F 30.30 in WNW 3.4 mph 3.4 mph 82% 0.00 in 0.00 W/m2
03:32 22.5 °F 17.9 °F 30.31 in WNW 4.6 mph 4.6 mph 82% 0.00 in 0.00 W/m2
03:37 22.4 °F 17.8 °F 30.31 in NW 3.4 mph 3.4 mph 82% 0.00 in 0.00 W/m2
03:42 22.3 °F 17.6 °F 30.32 in WNW 2.3 mph 4.6 mph 82% 0.00 in 0.00 W/m2
03:47 22.2 °F 17.5 °F 30.31 in WNW 2.3 mph 5.8 mph 82% 0.00 in 0.00 W/m2
03:52 22.2 °F 17.8 °F 30.32 in WNW 2.3 mph 4.6 mph 83% 0.00 in 0.00 W/m2
03:57 22.1 °F 17.7 °F 30.31 in WNW 5.8 mph 5.8 mph 83% 0.00 in 0.00 W/m2
04:02 22.0 °F 17.6 °F 30.32 in NW 2.3 mph 4.6 mph 83% 0.00 in 0.00 W/m2
04:07 22.0 °F 17.6 °F 30.32 in WNW 3.4 mph 5.8 mph 83% 0.00 in 0.00 W/m2
04:08 22.0 °F 17.6 °F 30.32 in WNW 4.6 mph 5.8 mph 83% 0.00 in 0.00 W/m2
04:13 21.9 °F 17.5 °F 30.32 in WNW 3.4 mph 3.4 mph 83% 0.00 in 0.00 W/m2
04:20 21.8 °F 17.4 °F 30.33 in WNW 2.3 mph 4.6 mph 83% 0.00 in 0.00 W/m2
04:30 21.7 °F 17.6 °F 30.33 in WNW 3.4 mph 6.9 mph 84% 0.00 in 0.00 W/m2
04:35 21.7 °F 17.6 °F 30.33 in WNW 3.4 mph 5.8 mph 84% 0.00 in 0.00 W/m2
04:40 21.6 °F 17.5 °F 30.34 in WNW 2.3 mph 5.8 mph 84% 0.00 in 0.00 W/m2
04:45 21.6 °F 17.5 °F 30.33 in WNW 2.3 mph 6.9 mph 84% 0.00 in 0.00 W/m2
04:46 21.6 °F 17.5 °F 30.33 in WNW 3.4 mph 6.9 mph 84% 0.00 in 0.00 W/m2
04:51 21.6 °F 17.5 °F 30.34 in West 2.3 mph 5.8 mph 84% 0.00 in 0.00 W/m2
04:56 21.5 °F 17.4 °F 30.34 in WNW 2.3 mph 4.6 mph 84% 0.00 in 0.00 W/m2
05:01 21.5 °F 17.4 °F 30.34 in WNW 3.4 mph 4.6 mph 84% 0.00 in 0.00 W/m2
05:11 21.5 °F 17.4 °F 30.34 in NW 2.3 mph 2.3 mph 84% 0.00 in 0.00 W/m2
05:16 21.4 °F 17.3 °F 30.34 in WNW 3.4 mph 3.4 mph 84% 0.00 in 0.00 W/m2
05:26 21.3 °F 17.5 °F 30.34 in WNW 1.1 mph 1.1 mph 85% 0.00 in 0.00 W/m2
05:31 21.3 °F 17.2 °F 30.35 in WNW 3.4 mph 3.4 mph 84% 0.00 in 0.00 W/m2
05:36 21.2 °F 17.1 °F 30.35 in WNW 3.4 mph 3.4 mph 84% 0.00 in 0.00 W/m2
05:51 21.0 °F 17.2 °F 30.35 in WNW 4.6 mph 5.8 mph 85% 0.00 in 0.00 W/m2
06:01 20.9 °F 17.1 °F 30.36 in WNW 3.4 mph 3.4 mph 85% 0.00 in 0.00 W/m2
06:07 20.8 °F 17.0 °F 30.36 in WNW 3.4 mph 4.6 mph 85% 0.00 in 0.00 W/m2
06:12 20.8 °F 17.0 °F 30.36 in WNW 4.6 mph 4.6 mph 85% 0.00 in 0.00 W/m2
06:17 20.7 °F 16.9 °F 30.36 in WNW 4.6 mph 4.6 mph 85% 0.00 in 0.00 W/m2
06:22 20.7 °F 16.9 °F 30.36 in WNW 5.8 mph 6.9 mph 85% 0.00 in 0.00 W/m2
06:27 20.7 °F 16.9 °F 30.36 in WNW 6.9 mph 6.9 mph 85% 0.00 in 0.00 W/m2
06:32 20.6 °F 16.8 °F 30.37 in WNW 3.4 mph 4.6 mph 85% 0.00 in 0.00 W/m2
06:37 20.6 °F 17.1 °F 30.37 in WNW 4.6 mph 4.6 mph 86% 0.00 in 0.00 W/m2
06:42 20.6 °F 17.1 °F 30.37 in WNW 3.4 mph 4.6 mph 86% 0.00 in 0.00 W/m2
06:47 20.6 °F 17.1 °F 30.38 in WNW 3.4 mph 5.8 mph 86% 0.00 in 0.00 W/m2
06:52 20.6 °F 17.1 °F 30.37 in WNW 3.4 mph 3.4 mph 86% 0.00 in 5.00 W/m2
06:57 20.6 °F 17.1 °F 30.37 in WNW 3.4 mph 5.8 mph 86% 0.00 in 7.00 W/m2
07:02 20.6 °F 17.1 °F 30.37 in WNW 3.4 mph 4.6 mph 86% 0.00 in 11.00 W/m2
07:07 20.6 °F 17.1 °F 30.38 in NW 4.6 mph 4.6 mph 86% 0.00 in 12.00 W/m2
07:12 20.6 °F 17.1 °F 30.38 in WNW 2.3 mph 4.6 mph 86% 0.00 in 14.00 W/m2
07:17 20.6 °F 17.1 °F 30.37 in WNW 3.4 mph 5.8 mph 86% 0.00 in 16.00 W/m2
07:22 20.6 °F 17.1 °F 30.38 in WNW 2.3 mph 4.6 mph 86% 0.00 in 19.00 W/m2
07:27 20.7 °F 17.2 °F 30.38 in WNW 2.3 mph 3.4 mph 86% 0.00 in 19.00 W/m2
07:32 20.8 °F 17.3 °F 30.38 in WNW 4.6 mph 4.6 mph 86% 0.00 in 21.00 W/m2
07:37 20.9 °F 17.6 °F 30.37 in WNW 3.4 mph 4.6 mph 87% 0.00 in 25.00 W/m2
07:42 21.1 °F 17.8 °F 30.38 in WNW 4.6 mph 4.6 mph 87% 0.00 in 26.00 W/m2
07:57 22.0 °F 18.7 °F 30.38 in WNW 4.6 mph 6.9 mph 87% 0.00 in 44.00 W/m2
08:02 22.4 °F 19.1 °F 30.38 in WNW 4.6 mph 6.9 mph 87% 0.00 in 46.00 W/m2
08:07 22.7 °F 19.1 °F 30.38 in WNW 5.8 mph 9.2 mph 86% 0.00 in 53.00 W/m2
08:12 23.0 °F 19.5 °F 30.38 in NNW 3.4 mph 4.6 mph 86% 0.00 in 44.00 W/m2
08:17 23.4 °F 19.8 °F 30.39 in WNW 5.8 mph 8.1 mph 86% 0.00 in 62.00 W/m2
08:22 23.8 °F 20.0 °F 30.39 in WNW 5.8 mph 9.2 mph 85% 0.00 in 67.00 W/m2
08:27 24.0 °F 19.9 °F 30.39 in West 3.4 mph 6.9 mph 84% 0.00 in 116.00 W/m2
08:32 24.3 °F 19.9 °F 30.39 in NW 8.1 mph 9.2 mph 83% 0.00 in 39.00 W/m2
08:37 24.6 °F 19.9 °F 30.39 in WNW 9.2 mph 9.2 mph 82% 0.00 in 33.00 W/m2
08:42 24.8 °F 20.1 °F 30.39 in NW 3.4 mph 9.2 mph 82% 0.00 in 39.00 W/m2
08:52 25.2 °F 20.2 °F 30.40 in WNW 9.2 mph 10.3 mph 81% 0.00 in 33.00 W/m2
08:57 25.5 °F 20.5 °F 30.40 in NW 8.1 mph 8.1 mph 81% 0.00 in 33.00 W/m2
09:02 25.7 °F 20.7 °F 30.40 in WNW 6.9 mph 9.2 mph 81% 0.00 in 65.00 W/m2
09:33 26.9 °F 20.4 °F 30.40 in WNW 6.9 mph 10.3 mph 76% 0.00 in 33.00 W/m2
09:38 27.1 °F 20.5 °F 30.40 in WNW 5.8 mph 9.2 mph 76% 0.00 in 33.00 W/m2
09:43 27.4 °F 20.5 °F 30.40 in NW 3.4 mph 5.8 mph 75% 0.00 in 33.00 W/m2
09:48 27.5 °F 20.6 °F 30.40 in NW 3.4 mph 4.6 mph 75% 0.00 in 35.00 W/m2
09:53 27.8 °F 20.6 °F 30.40 in NNW 2.3 mph 6.9 mph 74% 0.00 in 35.00 W/m2
09:58 28.7 °F 21.1 °F 30.40 in NW 3.4 mph 6.9 mph 73% 0.00 in 37.00 W/m2
10:03 28.8 °F 20.6 °F 30.41 in WNW 8.1 mph 8.1 mph 71% 0.00 in 35.00 W/m2
10:13 29.4 °F 20.5 °F 30.41 in WNW 5.8 mph 8.1 mph 69% 0.00 in 37.00 W/m2
10:18 29.6 °F 20.7 °F 30.41 in NNW 5.8 mph 8.1 mph 69% 0.00 in 35.00 W/m2
10:23 29.8 °F 20.5 °F 30.41 in NW 3.4 mph 6.9 mph 68% 0.00 in 42.00 W/m2
10:28 29.7 °F 20.5 °F 30.40 in West 2.3 mph 5.8 mph 68% 0.00 in 70.00 W/m2
peotoneweather.com
Compliments of Weather Underground - 2.5 mb